Content
SEND FEEDBACK

Daily
Averages
Monthly
Summary
United States of America

GATESVILLE, NORTH CAROLINA


Home > North America > United States > North Carolina
Elevation: 4 feet     Latitude: 36 24N     Longitude: 076 45W

WEATHER
 
SELECT A DAY
Number of Records: 390,684;   Date Range: 5/11/98 - 7/22/14
 
SHARE

PRINT THIS DATA

[ ← Previous Day ]
WEATHER ALMANAC - FEBRUARY 13, 2013
[ Next Day → ]
[ °C ]   °F
Weather ElementAverageHighLow
Temperature47.9 °F50 °F (12:35 am)46.4 °F (2:15 am)
Dewpoint46.1 °F48.2 °F (11:35 am)37.4 °F (12:35 am)
Humidity93.9 %100 % (7:15 am)62 % (12:35 am)
Barometer29.76 in29.96 in (1:15 am)29.61 in (5:35 pm)
Wind Speed3.2 mph11.5 mph (11:55 pm)
Wind Gust18.4 mph (11:55 pm)
Weather ElementAverage
Visibility7.1 mi
Wind DirectionESE (111 °)

Weather ElementTotal
Precipitation0.31 in
Heating Degree Days16.8 (Base 65)
Averaged from 70 records on February 13, 2013
WEATHER CONDITIONS BREAKOUT
WIND DIRECTION BREAKOUT
WEATHER BY HOUR - FEBRUARY 13, 2013
[ °C ]   °F
Local TimeTemperatureDewpointHumidityBarometerVisibilityWind DirectionWind SpeedGust SpeedPrecipitationEventsConditions
12:35 AM50.0 °F37.4 °F62 %29.94 in10.0 miCalmScattered Clouds
12:55 AM50.0 °F39.2 °F66 %29.95 in10.0 miSouth (170°)8.1 mphDrizzle
1:15 AM50.0 °F39.2 °F66 %29.96 in10.0 miSouth (190°)8.1 mphLight Drizzle
1:35 AM50.0 °F39.2 °F66 %29.95 in10.0 miSouth (190°)9.2 mphRainLight Rain
1:55 AM50.0 °F41.0 °F71 %29.95 in10.0 miSW (220°)3.5 mphRainLight Rain
2:15 AM46.4 °F44.6 °F93 %29.93 in10.0 miCalm0.01 inRainLight Rain
2:35 AM46.4 °F44.6 °F93 %29.91 in10.0 miSouth (180°)4.6 mph0.01 inMostly Cloudy
2:55 AM46.4 °F44.6 °F93 %29.89 in10.0 miSouth (170°)3.5 mph0.01 inMostly Cloudy
3:15 AM48.2 °F44.6 °F87 %29.89 in10.0 miSSE (160°)5.8 mphOvercast
3:35 AM48.2 °F42.8 °F82 %29.87 in10.0 miSE (140°)3.5 mphOvercast
3:55 AM48.2 °F44.6 °F87 %29.87 in10.0 miCalmOvercast
4:15 AM48.2 °F44.6 °F87 %29.87 in10.0 miCalmOvercast
4:35 AM48.2 °F44.6 °F87 %29.86 in10.0 miSouth (170°)4.6 mphOvercast
4:55 AM48.2 °F42.8 °F82 %29.84 in10.0 miCalmOvercast
5:15 AM48.2 °F44.6 °F87 %29.85 in10.0 miCalmOvercast
5:35 AM48.2 °F44.6 °F87 %29.85 in10.0 miCalmOvercast
5:55 AM48.2 °F44.6 °F87 %29.83 in10.0 miCalmOvercast
6:15 AM48.2 °F42.8 °F82 %29.83 in10.0 miCalmOvercast
6:35 AM48.2 °F44.6 °F87 %29.84 in10.0 miCalmOvercast
7:15 AM46.4 °F46.4 °F100 %29.84 in10.0 miCalmRainLight Rain
7:35 AM46.4 °F46.4 °F100 %29.82 in10.0 miCalm0.01 inRainLight Rain
7:55 AM46.4 °F46.4 °F100 %29.84 in10.0 miCalm0.01 inDrizzle
8:15 AM46.4 °F46.4 °F100 %29.86 in10.0 miCalmRainLight Rain
8:35 AM48.2 °F46.4 °F93 %29.87 in10.0 miCalm0.01 inRainLight Rain
8:55 AM48.2 °F46.4 °F93 %29.86 in10.0 miCalm0.01 inRainLight Rain
9:15 AM48.2 °F46.4 °F93 %29.86 in10.0 miSSW (200°)3.5 mphScattered Clouds
9:35 AM48.2 °F46.4 °F93 %29.85 in10.0 miSouth (190°)4.6 mphRainLight Rain
9:55 AM48.2 °F46.4 °F93 %29.84 in10.0 miSouth (180°)3.5 mphRainLight Rain
10:15 AM48.2 °F46.4 °F93 %29.82 in10.0 miSSW (210°)3.5 mphLight Drizzle
10:35 AM48.2 °F46.4 °F93 %29.83 in7.0 miSSW (210°)3.5 mphDrizzle
10:55 AM48.2 °F46.4 °F93 %29.81 in3.0 miCalm0.02 inRainRain
11:15 AM48.2 °F46.4 °F93 %29.79 in7.0 miCalmLight Drizzle
11:35 AM48.2 °F48.2 °F100 %29.78 in10.0 miCalmOvercast
11:55 AM48.2 °F48.2 °F100 %29.77 in7.0 miCalmOvercast
12:15 PM48.2 °F48.2 °F100 %29.76 in1.5 miCalm0.01 inDrizzle
12:35 PM48.2 °F48.2 °F100 %29.74 in2.0 miCalm0.01 inLight Drizzle
12:55 PM48.2 °F48.2 °F100 %29.71 in3.0 miENE (70°)4.6 mph0.01 inLight Drizzle
1:15 PM48.2 °F48.2 °F100 %29.71 in4.0 miENE (70°)5.8 mphOvercast
1:35 PM48.2 °F48.2 °F100 %29.69 in3.0 miCalmOvercast
1:55 PM48.2 °F48.2 °F100 %29.64 in3.0 miEast (90°)4.6 mphLight Drizzle
2:15 PM48.2 °F48.2 °F100 %29.66 in5.0 miNE (50°)4.6 mphOvercast
2:35 PM48.2 °F48.2 °F100 %29.65 in10.0 miESE (110°)4.6 mphOvercast
2:55 PM48.2 °F48.2 °F100 %29.64 in2.5 miNNE (20°)4.6 mph0.01 inDrizzle
3:15 PM48.2 °F48.2 °F100 %29.64 in2.0 miEast (80°)4.6 mphDrizzle
3:35 PM48.2 °F48.2 °F100 %29.63 in1.5 miEast (90°)5.8 mph0.01 inDrizzle
3:55 PM48.2 °F48.2 °F100 %29.62 in1.8 miENE (70°)5.8 mph0.01 inDrizzle
4:15 PM48.2 °F48.2 °F100 %29.63 in1.8 miEast (90°)3.5 mphLight Drizzle
4:35 PM48.2 °F48.2 °F100 %29.63 in2.5 miCalm0.01 inDrizzle
4:55 PM48.2 °F48.2 °F100 %29.62 in2.0 miEast (100°)3.5 mph0.02 inHeavy Drizzle
5:15 PM48.2 °F48.2 °F100 %29.62 in4.0 miCalm0.01 inLight Drizzle
5:35 PM48.2 °F48.2 °F100 %29.61 in2.5 miESE (120°)3.5 mph0.01 inDrizzle
5:55 PM48.2 °F48.2 °F100 %29.61 in3.0 miCalm0.02 inDrizzle
6:15 PM48.2 °F48.2 °F100 %29.62 in4.0 miCalm0.01 inDrizzle
6:35 PM48.2 °F48.2 °F100 %29.63 in2.5 miCalm0.02 inDrizzle
6:55 PM48.2 °F48.2 °F100 %29.62 in2.5 miCalm0.02 inDrizzle
7:15 PM48.2 °F48.2 °F100 %29.63 in3.0 miWest (280°)4.6 mph0.01 inDrizzle
7:35 PM46.4 °F46.4 °F100 %29.64 in3.0 miWNW (300°)5.8 mph0.01 inLight Drizzle
7:55 PM46.4 °F46.4 °F100 %29.64 in4.0 miWNW (300°)5.8 mph0.02 inOvercast
8:15 PM46.4 °F46.4 °F100 %29.65 in2.5 miWest (280°)5.8 mphOvercast
8:35 PM46.4 °F46.4 °F100 %29.65 in5.0 miWest (270°)4.6 mphOvercast
8:55 PM46.4 °F46.4 °F100 %29.67 in7.0 miWest (260°)6.9 mphOvercast
9:15 PM46.4 °F46.4 °F100 %29.68 in7.0 miWest (280°)8.1 mphOvercast
9:35 PM48.2 °F48.2 °F100 %29.69 in10.0 miWest (280°)5.8 mphOvercast
9:55 PM48.2 °F48.2 °F100 %29.70 in10.0 miWest (280°)8.1 mphOvercast
10:15 PM48.2 °F46.4 °F93 %29.70 in10.0 miWest (270°)4.6 mphOvercast
10:35 PM46.4 °F46.4 °F100 %29.71 in10.0 miWest (270°)5.8 mphOvercast
10:55 PM46.4 °F46.4 °F100 %29.72 in10.0 miWest (280°)5.8 mphOvercast
11:15 PM46.4 °F46.4 °F100 %29.72 in10.0 miWest (280°)5.8 mphOvercast
11:35 PM46.4 °F46.4 °F100 %29.74 in10.0 miWNW (290°)9.2 mphLight Drizzle
11:55 PM46.4 °F44.6 °F93 %29.75 in10.0 miNW (310°)11.5 mph18.4 mphOvercast
Hourly data recorded from KSFQ, located miles away from Gatesville, North Carolina







STORIES FROM OUR PARTNERS